NKS403 KTPA-KFLL

Flight info

Callsign NKS403
Flight time 0h 37m
Altitude 23000
Route GANDY8 SABEE TEEKY4
Aircraft A320/M-SDE3FGHIRWY/LB1

Departure

Time 2026-05-07 04:33
Airport Tampa International Airport (KTPA)

Arrival

Time 2026-05-07 05:10
Airport Fort Lauderdale Hollywood International Airport (KFLL)
Time Latitude Longitude Altitude Speed Heading
2026-05-07 03:50 27.97772 -82.53187 43 ft 0 kts 207°
2026-05-07 04:20 27.97787 -82.53179 43 ft 4 kts 207°
2026-05-07 04:21 27.97823 -82.53152 42 ft 4 kts 168°
2026-05-07 04:21 27.97833 -82.53168 41 ft 3 kts 91°
2026-05-07 04:21 27.97834 -82.53185 40 ft 0 kts 91°
2026-05-07 04:24 27.97834 -82.53184 43 ft 0 kts 91°
2026-05-07 04:25 27.97833 -82.53176 43 ft 3 kts 91°
2026-05-07 04:25 27.97832 -82.53120 43 ft 9 kts 92°
2026-05-07 04:25 27.97847 -82.53046 43 ft 10 kts 72°
2026-05-07 04:25 27.97818 -82.52979 42 ft 11 kts 165°
2026-05-07 04:26 27.97738 -82.52979 42 ft 12 kts 182°
2026-05-07 04:26 27.97652 -82.52983 42 ft 13 kts 181°
2026-05-07 04:26 27.97558 -82.52987 42 ft 15 kts 182°
2026-05-07 04:26 27.97448 -82.52990 42 ft 17 kts 182°
2026-05-07 04:27 27.97321 -82.52995 41 ft 20 kts 181°
2026-05-07 04:27 27.97182 -82.52999 41 ft 18 kts 180°
2026-05-07 04:27 27.97041 -82.53004 36 ft 22 kts 182°
2026-05-07 04:27 27.96892 -82.53012 41 ft 21 kts 182°
2026-05-07 04:28 27.96739 -82.53014 40 ft 24 kts 182°
2026-05-07 04:28 27.96576 -82.53020 41 ft 19 kts 182°
2026-05-07 04:28 27.96477 -82.53024 41 ft 9 kts 182°
2026-05-07 04:28 27.96448 -82.53001 41 ft 0 kts 107°
2026-05-07 04:31 27.96445 -82.52987 40 ft 5 kts 102°
2026-05-07 04:31 27.96442 -82.52928 38 ft 7 kts 92°
2026-05-07 04:32 27.96476 -82.52898 37 ft 9 kts
2026-05-07 04:32 27.96676 -82.52892 38 ft 63 kts
2026-05-07 04:32 27.97345 -82.52869 38 ft 125 kts
2026-05-07 04:32 27.98369 -82.52831 155 ft 162 kts
2026-05-07 04:33 27.99527 -82.52806 728 ft 172 kts 359°
2026-05-07 04:33 28.00744 -82.52878 1336 ft 180 kts 357°
2026-05-07 04:33 28.02051 -82.52992 1774 ft 196 kts 357°
2026-05-07 04:33 28.03466 -82.53107 2191 ft 212 kts 357°
2026-05-07 04:34 28.05022 -82.53223 2530 ft 236 kts 357°
2026-05-07 04:34 28.06748 -82.53358 2991 ft 261 kts 357°
2026-05-07 04:34 28.08580 -82.53764 3698 ft 276 kts 335°
2026-05-07 04:34 28.10091 -82.55050 4588 ft 279 kts 307°
2026-05-07 04:35 28.11083 -82.56931 5583 ft 278 kts 295°
2026-05-07 04:35 28.11919 -82.58905 6617 ft 277 kts 293°
2026-05-07 04:35 28.12363 -82.61046 7520 ft 279 kts 269°
2026-05-07 04:35 28.11930 -82.63150 8335 ft 283 kts 244°
2026-05-07 04:36 28.10698 -82.64904 9146 ft 290 kts 220°
2026-05-07 04:36 28.08905 -82.65975 9928 ft 298 kts 196°
2026-05-07 04:36 28.06800 -82.66127 10346 ft 318 kts 172°
2026-05-07 04:36 28.04567 -82.65527 10550 ft 342 kts 166°
2026-05-07 04:37 28.02198 -82.64819 10826 ft 359 kts 166°
2026-05-07 04:37 27.99762 -82.64083 11374 ft 365 kts 166°
2026-05-07 04:37 27.97288 -82.63339 11977 ft 370 kts 166°
2026-05-07 04:37 27.94781 -82.62597 12598 ft 374 kts 166°
2026-05-07 04:38 27.92247 -82.61859 13226 ft 378 kts 166°
2026-05-07 04:38 27.89682 -82.61119 13860 ft 383 kts 166°
2026-05-07 04:38 27.87089 -82.60372 14389 ft 387 kts 166°
2026-05-07 04:38 27.84474 -82.59620 14966 ft 390 kts 166°
2026-05-07 04:39 27.81831 -82.58860 15521 ft 394 kts 167°
2026-05-07 04:39 27.79157 -82.58091 16090 ft 397 kts 167°
2026-05-07 04:39 27.76486 -82.57242 16621 ft 402 kts 161°
2026-05-07 04:39 27.73884 -82.56042 17164 ft 406 kts 158°
2026-05-07 04:40 27.71264 -82.54800 17711 ft 410 kts 158°
2026-05-07 04:40 27.68622 -82.53545 18263 ft 414 kts 158°
2026-05-07 04:40 27.65958 -82.52276 18744 ft 418 kts 158°
2026-05-07 04:40 27.63267 -82.50998 19212 ft 422 kts 159°
2026-05-07 04:41 27.60555 -82.49712 19679 ft 425 kts 159°
2026-05-07 04:41 27.57809 -82.48410 20146 ft 429 kts 159°
2026-05-07 04:41 27.55117 -82.46912 20591 ft 435 kts 153°
2026-05-07 04:41 27.52439 -82.45296 21050 ft 439 kts 153°
2026-05-07 04:42 27.49734 -82.43664 21487 ft 443 kts 154°
2026-05-07 04:42 27.47009 -82.42024 21927 ft 446 kts 154°
2026-05-07 04:42 27.44257 -82.40372 22349 ft 450 kts 154°
2026-05-07 04:42 27.41516 -82.38731 22753 ft 454 kts 154°
2026-05-07 04:43 27.38721 -82.37059 23025 ft 457 kts 154°
2026-05-07 04:43 27.35894 -82.35366 23089 ft 466 kts 154°
2026-05-07 04:43 27.32994 -82.33631 23087 ft 476 kts 154°
2026-05-07 04:43 27.30064 -82.31873 23083 ft 479 kts 154°
2026-05-07 04:44 27.27119 -82.30102 23080 ft 480 kts 154°
2026-05-07 04:44 27.24179 -82.28337 23086 ft 480 kts 154°
2026-05-07 04:44 27.21233 -82.26572 23082 ft 480 kts 154°
2026-05-07 04:44 27.18283 -82.24811 23077 ft 480 kts 154°
2026-05-07 04:45 27.15331 -82.23054 23081 ft 480 kts 154°
2026-05-07 04:45 27.12378 -82.21297 23085 ft 480 kts 154°
2026-05-07 04:45 27.09366 -82.19721 23082 ft 478 kts 162°
2026-05-07 04:45 27.06195 -82.18662 23085 ft 474 kts 171°
2026-05-07 04:46 27.02950 -82.18010 23098 ft 473 kts 173°
2026-05-07 04:46 26.99703 -82.17385 23105 ft 473 kts 173°
2026-05-07 04:46 26.96456 -82.16758 23103 ft 473 kts 173°
2026-05-07 04:46 26.93216 -82.16131 23101 ft 473 kts 173°
2026-05-07 04:47 26.89967 -82.15501 23100 ft 473 kts 173°
2026-05-07 04:47 26.86731 -82.14873 23101 ft 473 kts 173°
2026-05-07 04:47 26.83505 -82.14106 23094 ft 475 kts 165°
2026-05-07 04:47 26.80445 -82.12684 23089 ft 479 kts 153°
2026-05-07 04:48 26.77696 -82.10578 23087 ft 481 kts 140°
2026-05-07 04:48 26.75381 -82.07883 23086 ft 481 kts 127°
2026-05-07 04:48 26.73599 -82.04714 23083 ft 480 kts 115°
2026-05-07 04:48 26.72396 -82.01249 23078 ft 479 kts 107°
2026-05-07 04:49 26.71346 -81.97710 23066 ft 479 kts 107°
2026-05-07 04:49 26.70297 -81.94181 23067 ft 479 kts 107°
2026-05-07 04:49 26.69238 -81.90638 23072 ft 480 kts 107°
2026-05-07 04:49 26.68176 -81.87100 23071 ft 480 kts 107°
2026-05-07 04:50 26.67113 -81.83567 23070 ft 480 kts 107°
2026-05-07 04:50 26.66049 -81.80031 23075 ft 480 kts 107°
2026-05-07 04:50 26.64983 -81.76492 23073 ft 480 kts 107°
2026-05-07 04:50 26.63925 -81.72983 22990 ft 468 kts 107°
2026-05-07 04:51 26.62917 -81.69646 22856 ft 451 kts 107°
2026-05-07 04:51 26.61929 -81.66374 22734 ft 439 kts 107°
2026-05-07 04:51 26.60866 -81.63192 22605 ft 436 kts 113°
2026-05-07 04:51 26.59445 -81.60206 22429 ft 435 kts 122°
2026-05-07 04:52 26.57689 -81.57457 22179 ft 434 kts 127°
2026-05-07 04:52 26.55874 -81.54778 21937 ft 432 kts 127°
2026-05-07 04:52 26.54070 -81.52108 21688 ft 430 kts 127°
2026-05-07 04:52 26.52277 -81.49453 21425 ft 427 kts 127°
2026-05-07 04:53 26.50495 -81.46813 20902 ft 424 kts 126°
2026-05-07 04:53 26.48720 -81.44183 20365 ft 424 kts 126°
2026-05-07 04:53 26.46954 -81.41567 19934 ft 419 kts 126°
2026-05-07 04:53 26.45202 -81.38971 19465 ft 416 kts 126°
2026-05-07 04:54 26.43473 -81.36409 19047 ft 412 kts 126°
2026-05-07 04:54 26.41758 -81.33866 18587 ft 409 kts 126°
2026-05-07 04:54 26.40037 -81.31369 18085 ft 403 kts 128°
2026-05-07 04:54 26.38306 -81.28990 17226 ft 397 kts 129°
2026-05-07 04:55 26.36547 -81.26657 16447 ft 389 kts 130°
2026-05-07 04:55 26.34812 -81.24400 15890 ft 376 kts 130°
2026-05-07 04:55 26.33124 -81.22209 15350 ft 372 kts 130°
2026-05-07 04:55 26.31442 -81.20009 14784 ft 374 kts 129°
2026-05-07 04:56 26.29767 -81.17792 14216 ft 375 kts 129°
2026-05-07 04:56 26.28109 -81.15578 13822 ft 367 kts 129°
2026-05-07 04:56 26.26476 -81.13406 13056 ft 365 kts 129°
2026-05-07 04:56 26.24846 -81.11252 12438 ft 361 kts 129°
2026-05-07 04:57 26.23240 -81.09138 11862 ft 355 kts 129°
2026-05-07 04:57 26.21656 -81.07058 11308 ft 350 kts 129°
2026-05-07 04:57 26.20086 -81.04999 11059 ft 349 kts 129°
2026-05-07 04:57 26.18541 -81.02976 10917 ft 334 kts 129°
2026-05-07 04:58 26.17066 -81.01047 10709 ft 321 kts 129°
2026-05-07 04:58 26.15667 -80.99147 10318 ft 315 kts 122°
2026-05-07 04:58 26.14684 -80.97027 10100 ft 306 kts 108°
2026-05-07 04:58 26.14174 -80.94751 9643 ft 301 kts 97°
2026-05-07 04:59 26.13802 -80.92459 9255 ft 300 kts 98°
2026-05-07 04:59 26.13425 -80.90168 8859 ft 302 kts 98°
2026-05-07 04:59 26.13043 -80.87865 8498 ft 302 kts 99°
2026-05-07 04:59 26.12661 -80.85577 8140 ft 301 kts 99°
2026-05-07 05:00 26.12282 -80.83302 7889 ft 297 kts 99°
2026-05-07 05:00 26.11908 -80.81053 7407 ft 294 kts 99°
2026-05-07 05:00 26.11540 -80.78838 6952 ft 289 kts 100°
2026-05-07 05:00 26.11176 -80.76655 6825 ft 287 kts 100°
2026-05-07 05:01 26.10808 -80.74468 6676 ft 287 kts 100°
2026-05-07 05:01 26.10441 -80.72291 6537 ft 286 kts 100°
2026-05-07 05:01 26.10074 -80.70116 6381 ft 286 kts 100°
2026-05-07 05:01 26.09715 -80.67983 6227 ft 280 kts 101°
2026-05-07 05:02 26.09362 -80.65898 6016 ft 264 kts 101°
2026-05-07 05:02 26.09026 -80.63924 5873 ft 259 kts 101°
2026-05-07 05:02 26.08691 -80.61950 5797 ft 259 kts 101°
2026-05-07 05:02 26.08361 -80.60008 5676 ft 259 kts 101°
2026-05-07 05:03 26.08024 -80.58023 5539 ft 258 kts 101°
2026-05-07 05:03 26.07694 -80.56077 5405 ft 253 kts 101°
2026-05-07 05:03 26.07379 -80.54210 5269 ft 246 kts 101°
2026-05-07 05:03 26.07039 -80.52355 5150 ft 245 kts 103°
2026-05-07 05:04 26.06806 -80.50899 5053 ft 244 kts 96°
2026-05-07 05:04 26.06722 -80.49005 4689 ft 251 kts 90°
2026-05-07 05:04 26.06725 -80.47066 4448 ft 247 kts 90°
2026-05-07 05:04 26.06726 -80.45155 3924 ft 254 kts 90°
2026-05-07 05:05 26.06719 -80.43232 3668 ft 243 kts 90°
2026-05-07 05:05 26.06711 -80.41422 3506 ft 226 kts 90°
2026-05-07 05:05 26.06705 -80.39706 3411 ft 219 kts 90°
2026-05-07 05:05 26.06700 -80.38593 3342 ft 215 kts 90°
2026-05-07 05:06 26.06693 -80.36956 3243 ft 208 kts 90°
2026-05-07 05:06 26.06686 -80.35366 3154 ft 202 kts 90°
2026-05-07 05:06 26.06680 -80.33834 3051 ft 196 kts 90°
2026-05-07 05:06 26.06673 -80.32316 2836 ft 198 kts 90°
2026-05-07 05:07 26.06666 -80.30777 2590 ft 200 kts 90°
2026-05-07 05:07 26.06658 -80.29232 2350 ft 198 kts 90°
2026-05-07 05:07 26.06651 -80.27731 2079 ft 190 kts 90°
2026-05-07 05:07 26.06644 -80.26294 1838 ft 184 kts 90°
2026-05-07 05:08 26.06637 -80.24893 1596 ft 176 kts 90°
2026-05-07 05:08 26.06630 -80.23623 1395 ft 152 kts 90°
2026-05-07 05:08 26.06625 -80.22506 1190 ft 138 kts 90°
2026-05-07 05:08 26.06619 -80.21457 1013 ft 133 kts 90°
2026-05-07 05:09 26.06614 -80.20433 841 ft 132 kts 90°
2026-05-07 05:09 26.06608 -80.19411 677 ft 132 kts 90°
2026-05-07 05:09 26.06603 -80.18389 508 ft 133 kts 91°
2026-05-07 05:09 26.06597 -80.17364 311 ft 132 kts 92°
2026-05-07 05:10 26.06590 -80.16335 138 ft 133 kts 91°
2026-05-07 05:10 26.06590 -80.15314 25 ft 125 kts 91°
2026-05-07 05:10 26.06582 -80.14583 38 ft 55 kts 90°
2026-05-07 05:10 26.06580 -80.14280 55 ft 32 kts 90°
2026-05-07 05:11 26.06579 -80.14055 73 ft 25 kts 90°
2026-05-07 05:11 26.06580 -80.13905 75 ft 17 kts 86°
2026-05-07 05:11 26.06621 -80.13788 73 ft 14 kts 47°
2026-05-07 05:11 26.06677 -80.13725 62 ft 8 kts 41°
2026-05-07 05:12 26.06735 -80.13734 69 ft 10 kts 308°
2026-05-07 05:12 26.06742 -80.13821 75 ft 13 kts 270°
2026-05-07 05:12 26.06743 -80.13930 75 ft 15 kts 271°
2026-05-07 05:12 26.06724 -80.14035 67 ft 15 kts 241°
2026-05-07 05:13 26.06684 -80.14136 57 ft 16 kts 256°
2026-05-07 05:13 26.06677 -80.14264 49 ft 12 kts 269°
2026-05-07 05:13 26.06676 -80.14362 49 ft 13 kts 270°
2026-05-07 05:13 26.06676 -80.14482 44 ft 18 kts 269°
2026-05-07 05:14 26.06676 -80.14619 37 ft 19 kts 271°
2026-05-07 05:14 26.06677 -80.14769 29 ft 19 kts 271°
2026-05-07 05:14 26.06687 -80.14866 20 ft 10 kts 284°
2026-05-07 05:14 26.06731 -80.14922 17 ft 11 kts 356°
2026-05-07 05:15 26.06767 -80.14848 15 ft 14 kts 90°
2026-05-07 05:15 26.06766 -80.14731 15 ft 15 kts 90°
2026-05-07 05:15 26.06765 -80.14615 16 ft 16 kts 90°
2026-05-07 05:15 26.06769 -80.14495 16 ft 15 kts 85°
2026-05-07 05:16 26.06770 -80.14376 16 ft 15 kts 91°
2026-05-07 05:16 26.06781 -80.14288 16 ft 10 kts 62°
2026-05-07 05:16 26.06814 -80.14218 16 ft 10 kts 79°
2026-05-07 05:16 26.06818 -80.14135 16 ft 10 kts 83°
2026-05-07 05:17 26.06856 -80.14087 17 ft 7 kts 21°
2026-05-07 05:17 26.06903 -80.14095 16 ft 7 kts 313°
2026-05-07 05:17 26.06923 -80.14141 16 ft 3 kts 298°
2026-05-07 05:17 26.06925 -80.14145 16 ft 0 kts 298°